CW9676 Weather Reports


time (UTC)temp
F
wind
direction
speed
knots
gust
knots
rain 1hr
in
rain 24hr
in
rain mn
in
humidity
%
barometer
mb
20260903135145 67 215 4.3 7.8 0.00 0.00 0.00 71 1006.6
20260903134137 67 215 3.5 6.1 0.00 0.00 0.00 72 1006.5
20260903133147 66 242 2.6 4.3 0.00 0.00 0.00 72 1006.6
20260903132209 66 226 1.7 4.3 0.00 0.00 0.00 72 1006.6
20260903131158 66 4 2.6 4.3 0.00 0.00 0.00 71 1006.6
20260903130217 66 202 1.7 4.3 0.00 0.00 0.00 70 1006.4
20260903125206 66 184 1.7 5.2 0.00 0.00 0.00 68 1006.4
20260903124221 66 182 1.7 5.2 0.00 0.00 0.00 68 1006.3
20260903123150 66 187 1.7 3.5 0.00 0.00 0.00 66 1006.2
20260903122141 66 185 1.7 5.2 0.00 0.00 0.00 64 1006.1
20260903121131 67 190 2.6 5.2 0.00 0.00 0.00 64 1006.0
20260903120146 67 200 2.6 5.2 0.00 0.00 0.00 63 1005.7
20260903115121 67 210 2.6 6.1 0.00 0.00 0.00 62 1005.5
20260903114132 67 184 3.5 6.1 0.00 0.00 0.00 62 1005.4
20260903113146 67 215 2.6 7.0 0.00 0.00 0.00 62 1005.2
20260903112158 67 221 4.3 7.0 0.00 0.00 0.00 61 1005.1
20260903111204 67 210 2.6 6.1 0.00 0.00 0.00 61 1005.0
20260903105017 68 225 2.6 4.3 0.00 0.00 0.00 60 1005.2
20260903104011 68 209 2.6 7.0 0.00 0.00 0.00 60 1005.2
20260903101854 69 206 4.3 8.7 0.00 0.00 0.00 59 1005.4
20260903094602 69 194 2.6 6.1 0.00 0.00 0.00 59 1005.6
20260903093558 69 185 3.5 8.7 0.00 0.00 0.00 58 1005.5
20260903092554 70 186 4.3 8.7 0.00 0.00 0.00 57 1005.5
20260903091531 70 202 3.5 7.8 0.00 0.00 0.00 57 1005.5
20260903090527 70 173 3.5 7.0 0.00 0.00 0.00 56 1005.6
20260903085512 70 161 2.6 4.3 0.00 0.00 0.00 55 1005.7
20260903084527 70 154 2.6 7.0 0.00 0.00 0.00 54 1005.5
20260903083528 71 148 3.5 7.0 0.00 0.00 0.00 54 1005.5
20260903082510 71 196 3.5 7.0 0.00 0.00 0.00 54 1005.6
20260903081450 71 179 3.5 6.1 0.00 0.00 0.00 54 1005.9
20260903080434 71 194 2.6 6.1 0.00 0.00 0.00 53 1006.0
20260903075422 71 225 2.6 5.2 0.00 0.00 0.00 53 1006.1
20260903074359 71 207 2.6 5.2 0.00 0.00 0.00 52 1005.9
20260903073412 71 204 2.6 5.2 0.00 0.00 0.00 52 1006.0
20260903072437 71 183 2.6 5.2 0.00 0.00 0.00 51 1006.0
20260903071423 71 210 2.6 5.2 0.00 0.00 0.00 51 1006.0
20260903070447 71 215 2.6 5.2 0.00 0.00 0.00 50 1006.1
20260903065436 71 183 3.5 7.8 0.00 0.00 0.00 50 1006.1
20260903064411 72 202 4.3 7.8 0.00 0.00 0.00 50 1006.0
20260903063404 72 212 3.5 7.0 0.00 0.00 0.00 50 1006.1
20260903062343 72 172 3.5 7.0 0.00 0.00 0.00 49 1006.2
20260903061312 72 182 2.6 7.0 0.00 0.00 0.00 48 1006.3
20260903060247 72 173 2.6 6.1 0.00 0.00 0.00 46 1006.3
20260903054121 74 192 2.6 7.0 0.00 0.00 0.00 44 1006.3
20260903053103 74 165 3.5 7.0 0.00 0.00 0.00 42 1006.3
20260903052050 74 169 2.6 5.2 0.00 0.00 0.00 41 1006.3
20260903051022 74 163 3.5 7.0 0.00 0.00 0.00 41 1006.3
20260903050044 74 163 3.5 7.0 0.00 0.00 0.00 41 1006.3
20260903045105 75 164 2.6 5.2 0.00 0.00 0.00 41 1006.4
20260903044104 75 167 3.5 7.8 0.00 0.00 0.00 41 1006.2
20260903043030 76 198 3.5 7.8 0.00 0.00 0.00 40 1006.2
20260903042049 76 190 3.5 10.4 0.00 0.00 0.00 40 1006.2
20260903041112 77 212 4.3 10.4 0.00 0.00 0.00 39 1006.2
20260903040047 77 4 5.2 9.6 0.00 0.00 0.00 39 1006.1
20260903035047 77 196 5.2 12.2 0.00 0.00 0.00 38 1006.2
20260903032958 78 4 5.2 9.6 0.00 0.00 0.00 38 1006.1
20260903030818 78 203 5.2 9.6 0.00 0.00 0.00 38 1005.9
20260903024622 78 177 4.3 12.2 0.00 0.00 0.00 37 1005.7
20260903023610 79 148 5.2 12.2 0.00 0.00 0.00 36 1005.6
20260903022545 79 4 5.2 10.4 0.00 0.00 0.00 32 1005.3
20260903020345 79 157 4.3 9.6 0.00 0.00 0.00 31 1005.3
20260903015335 80 177 4.3 9.6 0.00 0.00 0.00 30 1005.2
20260903013157 80 160 7.0 12.2 0.00 0.00 0.00 29 1005.0
20260903012153 81 166 4.3 9.6 0.00 0.00 0.00 29 1004.9
20260903011134 81 195 7.0 13.0 0.00 0.00 0.00 29 1004.9
20260903010151 81 154 7.0 13.0 0.00 0.00 0.00 29 1004.9
20260903005215 81 157 5.2 12.2 0.00 0.00 0.00 29 1004.8
20260903004152 82 144 6.1 12.2 0.00 0.00 0.00 28 1004.9
20260903003144 84 179 7.8 14.8 0.00 0.00 0.00 27 1004.8
20260903002120 85 200 7.0 14.8 0.00 0.00 0.00 27 1004.7
20260903001141 85 176 5.2 13.9 0.00 0.00 0.00 27 1004.7
20260903000110 85 175 7.0 13.9 0.00 0.00 0.00 26 1004.8
20260902233926 87 148 5.2 10.4 0.00 0.00 0.00 24 1004.9
20260902232852 86 125 6.1 13.0 0.00 0.00 0.00 23 1005.0
20260902231822 87 162 7.0 13.0 0.00 0.00 0.00 23 1005.0
20260902230751 88 4 5.2 12.2 0.00 0.00 0.00 23 1005.1
20260902225746 88 175 4.3 13.9 0.00 0.00 0.00 23 1005.2
20260902224737 87 200 5.2 14.8 0.00 0.00 0.00 24 1005.4
20260902223716 86 198 7.8 14.8 0.00 0.00 0.00 24 1005.4
20260902222655 88 169 6.1 14.8 0.00 0.00 0.00 23 1005.4
20260902221652 88 165 6.1 14.8 0.00 0.00 0.00 24 1005.6
20260902220630 87 127 6.1 11.3 0.00 0.00 0.00 24 1005.7
20260902215623 87 160 6.1 13.9 0.00 0.00 0.00 25 1005.7
20260902214612 88 146 7.8 13.9 0.00 0.00 0.00 24 1005.8
20260902213611 88 148 1.7 10.4 0.00 0.00 0.00 25 1006.0
20260902212549 87 193 5.2 15.6 0.00 0.00 0.00 26 1006.1
20260902210457 87 167 5.2 10.4 0.00 0.00 0.00 25 1006.5
20260902205430 86 210 3.5 13.0 0.00 0.00 0.00 27 1006.7
20260902204423 85 198 5.2 13.0 0.00 0.00 0.00 26 1006.9
20260902203431 86 192 6.1 11.3 0.00 0.00 0.00 26 1007.1
20260902202449 88 176 5.2 11.3 0.00 0.00 0.00 24 1007.3
20260902201447 87 197 4.3 13.0 0.00 0.00 0.00 26 1007.5
20260902195350 86 115 6.1 11.3 0.00 0.00 0.00 26 1007.9
20260902194342 85 223 5.2 10.4 0.00 0.00 0.00 25 1008.0
20260902193326 85 139 4.3 11.3 0.00 0.00 0.00 25 1008.3
20260902192347 85 117 5.2 14.8 0.00 0.00 0.00 24 1008.5
20260902191409 84 250 6.1 14.8 0.00 0.00 0.00 24 1008.5
20260902190434 86 173 6.1 12.2 0.00 0.00 0.00 23 1008.6
20260902185457 84 140 6.1 13.9 0.00 0.00 0.00 24 1008.7
20260902184427 85 4 6.1 13.9 0.00 0.00 0.00 24 1009.0
20260902183418 84 198 5.2 10.4 0.00 0.00 0.00 25 1009.0
20260902182417 83 219 7.0 12.2 0.00 0.00 0.00 25 1009.1
20260902181438 84 156 6.1 12.2 0.00 0.00 0.00 24 1009.1
20260902180421 84 4 4.3 13.9 0.00 0.00 0.00 23 1009.2
20260902173141 81 4 6.1 12.2 0.00 0.00 0.00 24 1009.5
20260902170951 81 180 5.2 10.4 0.00 0.00 0.00 30 1009.5
20260902165933 80 202 5.2 10.4 0.00 0.00 0.00 33 1009.7
20260902162647 78 156 5.2 10.4 0.00 0.00 0.00 39 1009.6
20260902161704 78 157 4.3 10.4 0.00 0.00 0.00 40 1009.6
20260902160729 77 4 4.3 10.4 0.00 0.00 0.00 41 1009.6
20260902155658 77 210 4.3 9.6 0.00 0.00 0.00 42 1009.5
20260902153516 77 160 3.5 8.7 0.00 0.00 0.00 40 1009.4
20260902152459 76 202 4.3 10.4 0.00 0.00 0.00 40 1009.4
20260902150325 74 230 4.3 9.6 0.00 0.00 0.00 44 1009.4
20260902145344 73 213 4.3 9.6 0.00 0.00 0.00 44 1009.5
20260902144346 73 215 5.2 9.6 0.00 0.00 0.00 43 1009.5
20260902143324 72 233 6.1 10.4 0.00 0.00 0.00 42 1009.4
20260902142300 71 217 6.1 12.2 0.00 0.00 0.00 41 1009.4